SCP
0 0 0 0 0 0 0 0 0 0 0 0 0 0 0 0 0 0 0 0 0 0 0 0 0 0 0 0 0 0 0 0 0 0 0 0 0 0
0 0 0 0 0 0 0 0 0 0 0 0 0 0 0 0 0 0 0 0 0 0 0 0 0 0 0 0 0 0 0 0 0 0 0 0 0 0
0 0 0 0 0 0 0 0 0 0 0 0 0 0 0 0 0 0 0 0 0 0 0 0 0 0 0 0 0 0 0 0 0 0 0 0 0 0
0 0 0 0 0 0 0 0 0 0 0 0 0 0 0 0 0 0 0 0 0 0 0 0 0 0 0 0 0 0 0 0 0 0 0 0 0 0
0 0 0 0 0 0 0 0 0 0 0 0 0 0 0 0 0 0 0 0 0 0 0 0 0 0 0 0 0 0 0 0 0 0 0 0 0 0
0 0 0 0 0 0 0 0 0 0 0 0 0 0 0 0 0 0 0 0 0 0 0 0 0 0 0 0 0 0 0 0 0 0 0 0 0 0
0 0 0 0 0 0 0 0 0 0 0 0 0 0 0 0 0 0 0 0 0 0 0 0 0 0 0 0 0 0 0 0 0 0 0 0 0 0
0 0 0 0 0 0 0 0 0 0 0 0 0 0 0 0 0 0 0 0 0 0 0 0 0 0 0 0 0 0 0 0 0 0 0 0 0 0
0 0 0 0 0 0 0 0 0 0 0 0 0 0 0 0 0 0 0 0 0 0 0 0 0 0 0 0 0 0 0 0 0 0 0 0 0 0
0 0 0 0 0 0 0 0 0 0 0 0 0 0 0 0 0 0 0 0 0 0 0 0 0 0 0 0 0 0 0 0 0 0 0 0 0 0
0 0 0 0 0 0 0 0 0 0 0 0 0 0 0 0 0 0 0 0 0 0 0 0 0 0 0 0 0 0 0 0 0 0 0 0 0 0
0 0 0 0 0 0 0 0 0 0 0 0 0 0 0 0 0 0 0 0 0 0 0 0 0 0 0 0 0 0 0 0 0 0 0 0 0 0
0 0 0 0 0 0 0 0 0 0 0 0 0 0 0 0 0 0 0 0 0 0 0 0 0 0 0 0 0 0 0 0 0 0 0 0 0 0
0 0 0 0 0 0 0 0 0 0 0 0 0 0 0 0 0 0 0 0 0 0 0 0 0 0 0 0 0 0 0 0 0 0 0 0 0 0
0 0 0 0 0 0 0 0 0 0 0 0 0 0 0 0 0 0 0 0 0 0 0 0 0 0 0 0 0 0 0 0 0 0 0 0 0 0
0 0 0 0 0 0 0 0 0 0 0 0 0 0 0 0 0 0 0 0 0 0 0 0 0 0 0 0 0 0 0 0 0 0 0 0 0 0
0 0 0 0 0 0 0 0 0 0 0 0 0 0 0 0 0 0 0 0 0 0 0 0 0 0 0 0 0 0 0 0 0 0 0 0 0 0
0 0 0 0 0 0 0 0 0 0 0 0 0 0 0 0 0 0 0 0 0 0 0 0 0 0 0 0 0 0 0 0 0 0 0 0 0 0
0 0 0 0 0 0 0 0 0 0 0 0 0 0 0 0 0 0 0 0 0 0 0 0 0 0 0 0 0 0 0 0 0 0 0 0 0 0
0 0 0 0 0 0 0 0 0 0 0 0 0 0 0 0 0 0 0 0 0 0 0 0 0 0 0 0 0 0 0 0 0 0 0 0 0 0
0 0 0 0 0 0 0 0 0 0 0 0 0 0 0 0 0 0 0 0 0 0 0 0 0 0 0 0 0 0 0 0 0 0 0 0 0 0
0 0 0 0 0 0 0 0 0 0 0 0 0 0 0 0 0 0 0 0 0 0 0 0 0 0 0 0 0 0 0 0 0 0 0 0 0 0
0 0 0 0 0 0 0 0 0 0 0 0 0 0 0 0 0 0 0 0 0 0 0 0 0 0 0 0 0 0 0 0 0 0 0 0 0 0
Wind_Speed
4 4 3 3 2 2 2 2 3 2 3 3 2 2 2 1 3 2 2 5 7 7 8 9 9 10 10 11 12 12 13 13 13 13 13 14 14 14
3 4 4 3 3 2 2 2 2 3 3 2 2 2 1 1 3 2 3 5 6 7 8 9 10 11 11 12 12 13 13 13 13 13 14 14 15 15
5 5 5 4 3 3 2 2 2 2 4 3 1 1 1 2 2 2 2 3 3 7 9 10 11 11 11 12 12 12 13 13 13 14 14 15 15 14
6 5 5 4 4 3 3 3 3 3 3 4 3 1 2 2 2 2 2 3 3 7 9 10 10 11 12 12 12 12 12 13 14 14 15 15 14 14
6 6 5 5 5 4 4 4 3 3 2 3 3 2 2 1 2 2 3 3 3 5 8 9 10 11 11 11 12 11 12 12 13 13 14 14 14 14
5 5 5 6 5 5 4 4 3 3 2 2 3 2 2 1 1 2 3 3 4 3 5 6 8 10 11 11 11 11 11 12 12 12 12 12 13 13
4 4 5 5 6 5 4 4 4 3 3 3 3 2 2 2 2 2 3 3 4 2 3 4 4 4 5 8 10 11 12 12 12 12 12 12 12 13
5 4 4 5 6 7 7 6 6 5 5 4 4 5 5 3 2 2 2 2 4 2 2 4 2 4 4 4 9 11 12 12 12 12 12 12 12 13
4 4 3 3 3 4 5 5 5 7 7 5 5 6 4 4 3 3 3 3 4 3 2 4 2 4 4 5 11 11 11 11 12 12 12 12 12 12
3 3 3 3 3 3 3 3 3 4 4 4 4 4 3 3 4 4 3 3 3 2 1 3 3 4 4 4 9 11 11 12 12 12 13 13 13 12
2 2 3 2 3 4 3 3 3 3 3 3 3 3 3 3 2 1 1 1 3 3 1 2 3 3 4 4 5 9 10 11 12 12 12 13 13 12
1 2 3 3 4 4 3 3 4 3 1 1 2 3 2 2 3 3 3 3 2 3 2 1 2 2 4 3 3 3 5 8 11 12 12 13 13 7
2 2 2 3 4 4 4 3 4 2 1 2 2 2 1 1 2 2 3 3 4 4 2 2 1 1 2 4 4 3 3 3 5 6 9 12 13 10
2 1 1 2 3 3 3 3 3 2 1 1 2 2 2 2 2 3 3 4 4 4 4 3 3 3 3 4 5 4 3 3 4 4 4 9 11 13
1 1 1 1 2 2 2 2 1 1 1 2 3 3 2 2 2 2 2 2 3 3 3 3 4 3 3 5 5 4 4 4 3 4 4 4 5 5
1 1 1 2 1 0 0 1 1 1 1 2 2 2 1 1 1 1 2 2 2 3 3 3 4 4 5 6 6 6 4 4 4 4 5 5 5 4
1 0 0 0 1 1 0 0 1 1 1 1 1 1 1 2 2 1 2 2 2 3 3 2 3 4 5 5 5 6 5 5 5 5 5 6 6 5
1 1 1 1 2 1 1 1 1 1 1 1 1 2 2 2 2 2 2 2 3 3 3 2 2 2 2 4 7 6 5 5 4 4 4 5 7 5
1 1 2 2 2 2 2 2 2 2 1 1 2 2 2 2 2 2 2 2 3 3 3 2 2 2 3 5 4 4 4 4 4 4 4 4 7 7
1 2 2 2 2 2 2 2 2 1 1 1 2 2 2 2 2 2 2 3 3 3 3 2 2 3 4 4 4 4 5 4 4 5 5 5 6 8
2 2 2 2 2 2 2 2 2 2 2 2 2 2 2 2 2 2 3 3 3 3 3 4 3 4 3 2 3 5 4 5 6 5 5 5 6 5
3 3 2 2 2 3 3 2 2 3 3 2 2 2 2 2 3 3 3 3 3 3 4 4 3 2 2 3 5 6 6 6 7 9 9 7 4 4
3 3 3 3 3 2 3 3 4 3 3 3 3 2 3 3 3 3 3 3 3 3 3 3 3 2 2 3 4 5 6 7 5 5 6 8 10 12
Wind_Direction
206 205 213 212 202 203 196 182 183 217 249 235 229 228 230 229 236 231 233 251 258 262 266 270 273 274 277 277 277 277 279 281 284 285 286 287 288 290
204 203 213 215 205 198 200 210 206 200 238 237 229 256 248 257 250 243 241 260 257 262 269 272 273 275 276 277 277 276 277 279 281 282 283 285 287 289
208 207 215 206 205 203 200 203 211 201 234 268 257 257 236 261 268 256 248 250 258 264 268 270 273 274 276 277 276 276 276 279 280 282 281 282 286 288
212 209 215 206 208 205 203 212 216 211 210 251 277 275 258 247 258 270 272 259 262 270 269 271 274 275 275 275 274 276 276 277 279 279 279 280 283 287
215 213 213 203 215 212 207 213 216 217 216 230 262 278 287 270 281 285 281 279 277 276 271 273 278 279 276 273 271 274 276 276 277 278 279 280 284 285
218 216 213 209 212 210 212 214 209 209 215 229 250 268 281 282 263 280 291 285 286 283 275 280 281 279 278 277 274 274 276 278 279 281 281 281 284 285
218 218 216 215 214 210 212 210 203 211 219 231 246 262 258 262 254 259 273 292 286 265 288 283 279 274 272 273 272 272 273 274 277 280 281 282 284 285
215 217 218 213 220 222 224 219 210 211 218 222 234 237 243 246 251 250 268 294 284 266 280 281 257 269 270 262 271 274 274 274 275 278 280 283 285 285
215 214 218 216 209 217 229 233 231 234 230 222 230 236 239 231 221 238 244 255 266 272 283 277 261 267 269 273 278 275 276 278 282 282 283 284 285 287
218 214 212 212 210 205 207 226 240 245 244 237 239 244 242 226 213 222 236 268 292 276 237 268 280 277 286 277 274 273 278 283 285 285 285 287 289 291
234 222 204 202 218 209 199 216 243 261 263 255 262 265 258 240 212 168 195 250 280 273 242 259 286 299 290 275 274 279 285 286 286 287 288 289 293 294
241 233 219 210 216 210 203 203 228 245 240 270 266 270 258 243 231 210 207 221 250 264 229 242 279 316 308 295 296 293 289 288 290 290 290 291 295 293
229 238 234 222 227 226 221 215 230 234 211 228 246 253 254 242 237 233 225 218 225 242 226 205 248 255 262 294 300 287 279 290 295 290 290 293 294 292
232 244 250 239 233 232 232 238 245 242 214 222 243 248 250 256 256 246 240 236 239 246 237 213 224 228 259 282 284 294 294 284 281 284 286 295 293 291
241 253 285 281 263 239 239 247 248 225 219 231 245 250 249 250 253 264 262 255 264 260 246 231 231 238 241 258 276 285 301 296 277 277 288 290 287 291
247 294 302 299 280 262 270 258 243 232 226 239 262 280 281 247 243 257 267 278 275 278 260 243 234 233 251 257 262 275 275 281 299 299 293 288 285 276
168 138 308 319 283 278 294 272 246 238 237 245 256 279 290 288 279 267 251 254 255 274 287 280 258 241 244 253 265 265 270 276 281 295 300 295 286 276
168 195 227 236 241 242 238 256 253 249 250 243 246 252 262 268 279 281 263 245 256 266 273 280 300 303 293 262 237 259 269 274 286 291 284 286 286 285
204 222 232 237 241 242 239 240 248 248 239 234 242 252 255 258 260 265 265 265 268 270 271 267 261 259 282 286 285 241 264 289 295 293 282 276 282 289
232 235 237 241 241 235 238 247 251 247 240 244 244 247 250 254 259 262 261 263 272 278 279 271 254 247 249 266 282 287 267 273 284 288 292 290 284 291
243 247 249 245 253 242 238 243 243 241 240 237 238 241 241 243 255 264 267 269 267 270 275 277 274 276 272 277 282 285 286 280 284 283 290 294 299 300
247 244 249 248 248 247 236 233 239 241 237 237 239 238 240 240 248 253 258 265 267 268 274 284 292 285 252 251 271 284 296 303 298 299 292 279 277 278
256 253 247 246 243 249 241 230 231 237 234 232 232 233 233 237 242 245 250 254 264 276 282 290 296 281 264 258 270 282 292 301 308 305 294 293 287 281